This is the latest recevied weather packets stored in our database for station/object WD7OO. If no packets are shown the sender has not sent any weather packets the latest 10 day(s).
| Time | Temp. | Humidity | Pressure | Rain* | Wind** | Luminosity | Snow |
|---|---|---|---|---|---|---|---|
| 1777670513 | 10° C | 56% | 1017.1 hPa | 0 mm | - | 488 W/m² | - |
| 1777670210 | 9.44° C | 54% | 1017 hPa | 0 mm | - | 339 W/m² | - |
| 1777669907 | 9.44° C | 54% | 1017 hPa | 0 mm | - | 482 W/m² | - |
| 1777669604 | 8.89° C | 52% | 1017 hPa | 0 mm | - | 240 W/m² | - |
| 1777669301 | 10.56° C | 51% | 1016.9 hPa | 0 mm | - | 592 W/m² | - |
| 1777668997 | 10.56° C | 54% | 1016.8 hPa | 0 mm | - | 606 W/m² | - |
| 1777668695 | 10° C | 53% | 1017 hPa | 0 mm | - | 581 W/m² | - |
| 1777668391 | 9.44° C | 55% | 1016.9 hPa | 0 mm | - | 168 W/m² | - |
| 1777668087 | 9.44° C | 53% | 1017 hPa | 0 mm | - | 193 W/m² | - |
| 1777667784 | 9.44° C | 55% | 1016.9 hPa | 0 mm | - | 249 W/m² | - |
| 1777667481 | 9.44° C | 54% | 1017 hPa | 0 mm | - | 629 W/m² | - |
| 1777667179 | 11.11° C | 52% | 1016.9 hPa | 0 mm | - | 654 W/m² | - |
| 1777666875 | 10° C | 57% | 1016.8 hPa | 0 mm | - | 714 W/m² | - |
| 1777666572 | 10.56° C | 50% | 1016.7 hPa | 0 mm | - | 713 W/m² | - |
| 1777666269 | 10.56° C | 52% | 1016.6 hPa | 0 mm | - | 672 W/m² | - |
| 1777665966 | 9.44° C | 53% | 1016.7 hPa | 0 mm | - | 701 W/m² | - |
| 1777665663 | 10° C | 56% | 1016.8 hPa | 0 mm | - | 551 W/m² | - |
| 1777665361 | 9.44° C | 52% | 1016.9 hPa | 0 mm | - | 641 W/m² | - |
| 1777665056 | 9.44° C | 54% | 1016.9 hPa | 0 mm | - | 433 W/m² | - |
| 1777664752 | 9.44° C | 55% | 1016.8 hPa | 0 mm | - | 634 W/m² | - |
| 1777664447 | 9.44° C | 54% | 1016.7 hPa | 0 mm | - | 205 W/m² | - |
| 1777664145 | 9.44° C | 55% | 1016.7 hPa | 0 mm | - | 799 W/m² | - |
| 1777663844 | 8.33° C | 58% | 1016.7 hPa | 0 mm | - | 262 W/m² | - |
| 1777663540 | 8.33° C | 60% | 1016.7 hPa | 0 mm | - | 161 W/m² | - |
| 1777663238 | 8.89° C | 59% | 1016.7 hPa | 0 mm | - | 174 W/m² | - |
* Rain latest hour (hover to see other rain measurements)
** Current wind speed in m/s (hover to see current wind gust speed)